iso_date,epoch_date,Year,Hour,Min,DOY,POS_DOY,Lat,Lon,BP,Ts,Ta,has_bp,has_ts,has_ta,BuoyID,Buoy_Type,Buoy_Owner,Logistics,Hemisphere
2021-02-03T21:09:30Z,1612386570,2021,21,9,34.8816,34.8816,-45.86383,170.51387,1029.5,20.69,19.44,yes,yes,yes,300434063483810,unknown,unknown,unknown,South
2021-07-23T04:01:03Z,1627012863,2021,4,1,204.1674,204.1674,-77.84875,166.76694,995.4,3.61,-8.12,yes,yes,yes,300434063483810,unknown,unknown,unknown,South
2021-07-23T08:01:06Z,1627027266,2021,8,1,204.3341,204.3341,-77.84873,166.76714,996.0,-16.25,-15.94,yes,yes,yes,300434063483810,unknown,unknown,unknown,South
2021-07-23T12:01:17Z,1627041678,2021,12,1,204.5009,204.5009,-77.84873,166.76698,996.1,-14.98,-14.25,yes,yes,yes,300434063483810,unknown,unknown,unknown,South
2021-07-23T16:01:03Z,1627056063,2021,16,1,204.6674,204.6674,-77.84877,166.76706,996.6,-17.84,-17.38,yes,yes,yes,300434063483810,unknown,unknown,unknown,South
2021-07-23T20:02:49Z,1627070570,2021,20,2,204.8353,204.8353,-77.84873,166.76859,996.6,-16.39,-15.94,yes,yes,yes,300434063483810,unknown,unknown,unknown,South
2021-07-24T00:01:52Z,1627084912,2021,0,1,205.0013,205.0013,-77.8491,166.76802,997.0,-16.25,-15.75,yes,yes,yes,300434063483810,unknown,unknown,unknown,South
2021-07-30T02:28:53Z,1627612134,2021,2,28,211.1034,211.1034,-77.88213,166.23328,1017.0,-29.03,-33.75,yes,yes,yes,300434063483810,unknown,unknown,unknown,South
2021-07-30T04:00:46Z,1627617646,2021,4,0,211.1672,211.1672,-77.88148,166.23346,1018.6,-2.19,-33.12,yes,yes,yes,300434063483810,unknown,unknown,unknown,South
2021-07-30T08:00:57Z,1627632058,2021,8,0,211.334,211.334,-77.88148,166.23338,1018.9,-2.19,-30.12,yes,yes,yes,300434063483810,unknown,unknown,unknown,South
2021-07-30T12:00:51Z,1627646452,2021,12,0,211.5006,211.5006,-77.88144,166.23336,1018.0,-2.19,-30.88,yes,yes,yes,300434063483810,unknown,unknown,unknown,South
2021-07-30T16:00:46Z,1627660846,2021,16,0,211.6672,211.6672,-77.88163,166.23338,1017.5,-2.19,-30.69,yes,yes,yes,300434063483810,unknown,unknown,unknown,South
2021-07-30T20:00:57Z,1627675258,2021,20,0,211.834,211.834,-77.88164,166.23336,1015.9,-2.19,-28.12,yes,yes,yes,300434063483810,unknown,unknown,unknown,South
2021-07-31T00:00:43Z,1627689643,2021,0,0,212.0005,212.0005,-77.8814,166.2315,1012.9,-2.19,-27.12,yes,yes,yes,300434063483810,unknown,unknown,unknown,South
2021-07-31T04:00:54Z,1627704055,2021,4,0,212.1673,212.1673,-77.88146,166.23328,1008.8,-2.19,-27.62,yes,yes,yes,300434063483810,unknown,unknown,unknown,South
2021-07-31T08:00:48Z,1627718449,2021,8,0,212.3339,212.3339,-77.88146,166.23328,1003.5,-2.19,-25.75,yes,yes,yes,300434063483810,unknown,unknown,unknown,South
2021-07-31T12:00:34Z,1627732835,2021,12,0,212.5004,212.5004,-77.88162,166.23267,999.3,-2.19,-27.5,yes,yes,yes,300434063483810,unknown,unknown,unknown,South
2021-07-31T16:00:54Z,1627747255,2021,16,0,212.6673,212.6673,-77.88174,166.23342,994.7,-2.19,-31.94,yes,yes,yes,300434063483810,unknown,unknown,unknown,South
2021-07-31T20:01:14Z,1627761675,2021,20,1,212.8342,212.8342,-77.88149,166.23336,989.4,-2.19,-28.19,yes,yes,yes,300434063483810,unknown,unknown,unknown,South
2021-08-01T00:01:00Z,1627776060,2021,0,1,213.0007,213.0007,-77.88145,166.23326,985.6,-2.19,-23.44,yes,yes,yes,300434063483810,unknown,unknown,unknown,South
2021-08-01T04:00:54Z,1627790455,2021,4,0,213.1673,213.1673,-77.88146,166.23328,986.4,-2.19,-13.5,yes,yes,yes,300434063483810,unknown,unknown,unknown,South
2021-08-01T08:00:48Z,1627804849,2021,8,0,213.3339,213.3339,-77.88148,166.23338,985.7,-2.19,-20.19,yes,yes,yes,300434063483810,unknown,unknown,unknown,South
2021-08-01T12:01:00Z,1627819260,2021,12,0,213.5007,213.5007,-77.88144,166.23338,986.1,-2.19,-27.25,yes,yes,yes,300434063483810,unknown,unknown,unknown,South
2021-08-01T16:01:03Z,1627833663,2021,16,1,213.6674,213.6674,-77.88145,166.23338,989.6,-2.19,-30.62,yes,yes,yes,300434063483810,unknown,unknown,unknown,South
2021-08-01T20:00:57Z,1627848058,2021,20,0,213.834,213.834,-77.88151,166.23334,990.5,-2.19,-29.0,yes,yes,yes,300434063483810,unknown,unknown,unknown,South
2021-08-02T00:01:00Z,1627862460,2021,0,1,214.0007,214.0007,-77.88146,166.23334,992.6,-2.19,-29.62,yes,yes,yes,300434063483810,unknown,unknown,unknown,South
2021-08-02T04:01:03Z,1627876863,2021,4,1,214.1674,214.1674,-77.88146,166.23334,992.5,-2.19,-33.12,yes,yes,yes,300434063483810,unknown,unknown,unknown,South
2021-08-02T08:01:40Z,1627891301,2021,8,1,214.3345,214.3345,-77.88148,166.23336,995.4,-2.19,-34.94,yes,yes,yes,300434063483810,unknown,unknown,unknown,South
2021-08-02T12:01:09Z,1627905669,2021,12,1,214.5008,214.5008,-77.88145,166.23341,1000.0,-2.19,-34.75,yes,yes,yes,300434063483810,unknown,unknown,unknown,South
2021-08-02T16:00:54Z,1627920055,2021,16,0,214.6673,214.6673,-77.88145,166.23349,1001.9,-2.19,-35.56,yes,yes,yes,300434063483810,unknown,unknown,unknown,South
2021-08-02T20:00:57Z,1627934458,2021,20,0,214.834,214.834,-77.8815,166.23326,1003.2,-2.19,-32.62,yes,yes,yes,300434063483810,unknown,unknown,unknown,South
2021-08-03T00:01:00Z,1627948860,2021,0,0,215.0007,215.0007,-77.88148,166.23336,1003.5,-2.19,-33.88,yes,yes,yes,300434063483810,unknown,unknown,unknown,South
2021-08-03T04:00:54Z,1627963255,2021,4,0,215.1673,215.1673,-77.88145,166.23318,1002.3,-2.19,-30.94,yes,yes,yes,300434063483810,unknown,unknown,unknown,South
2021-08-03T08:00:48Z,1627977649,2021,8,0,215.3339,215.3339,-77.88148,166.23334,1000.9,-2.19,-25.5,yes,yes,yes,300434063483810,unknown,unknown,unknown,South
2021-08-03T12:01:00Z,1627992060,2021,12,1,215.5007,215.5007,-77.8811,166.23435,1000.2,-2.19,-29.62,yes,yes,yes,300434063483810,unknown,unknown,unknown,South
2021-08-03T16:00:54Z,1628006455,2021,16,0,215.6673,215.6673,-77.88145,166.23358,999.2,-2.19,-29.5,yes,yes,yes,300434063483810,unknown,unknown,unknown,South
2021-08-03T20:01:14Z,1628020875,2021,20,1,215.8342,215.8342,-77.88146,166.23328,998.7,-2.19,-28.94,yes,yes,yes,300434063483810,unknown,unknown,unknown,South
2021-08-04T00:01:00Z,1628035260,2021,0,1,216.0007,216.0007,-77.88145,166.23326,998.7,-2.19,-30.62,yes,yes,yes,300434063483810,unknown,unknown,unknown,South
2021-08-04T04:00:54Z,1628049655,2021,4,0,216.1673,216.1673,-77.88146,166.23323,997.5,-2.19,-27.38,yes,yes,yes,300434063483810,unknown,unknown,unknown,South
2021-08-04T08:00:57Z,1628064058,2021,8,0,216.334,216.334,-77.88148,166.23334,996.7,-2.19,-29.06,yes,yes,yes,300434063483810,unknown,unknown,unknown,South
2021-08-04T12:00:51Z,1628078452,2021,12,0,216.5006,216.5006,-77.88145,166.23342,995.0,-2.19,-32.88,yes,yes,yes,300434063483810,unknown,unknown,unknown,South
2021-08-04T16:01:03Z,1628092863,2021,16,1,216.6674,216.6674,-77.88145,166.2335,993.8,-2.19,-27.0,yes,yes,yes,300434063483810,unknown,unknown,unknown,South
2021-08-04T20:00:57Z,1628107258,2021,20,0,216.834,216.834,-77.88148,166.23331,993.1,-2.19,-26.31,yes,yes,yes,300434063483810,unknown,unknown,unknown,South
2021-08-05T00:01:00Z,1628121660,2021,0,1,217.0007,217.0007,-77.88146,166.23336,993.4,-2.19,-26.38,yes,yes,yes,300434063483810,unknown,unknown,unknown,South
2021-08-05T04:01:03Z,1628136063,2021,4,1,217.1674,217.1674,-77.88146,166.23323,993.3,-2.19,-27.56,yes,yes,yes,300434063483810,unknown,unknown,unknown,South
2021-08-05T08:00:57Z,1628150458,2021,8,0,217.334,217.334,-77.88146,166.23336,994.0,-2.19,-28.56,yes,yes,yes,300434063483810,unknown,unknown,unknown,South
2021-08-05T12:01:00Z,1628164860,2021,12,1,217.5007,217.5007,-77.88144,166.23341,994.6,-2.19,-31.12,yes,yes,yes,300434063483810,unknown,unknown,unknown,South
2021-08-05T16:01:03Z,1628179263,2021,16,1,217.6674,217.6674,-77.88145,166.2335,995.2,-2.19,-34.88,yes,yes,yes,300434063483810,unknown,unknown,unknown,South
2021-08-05T20:00:57Z,1628193658,2021,20,0,217.834,217.834,-77.88146,166.23328,996.3,-2.19,-37.56,yes,yes,yes,300434063483810,unknown,unknown,unknown,South
2021-08-06T00:01:00Z,1628208060,2021,0,1,218.0007,218.0007,-77.88146,166.23349,997.9,-2.19,-37.19,yes,yes,yes,300434063483810,unknown,unknown,unknown,South
2021-08-06T04:00:46Z,1628222446,2021,4,0,218.1672,218.1672,-77.88142,166.23365,1000.3,-2.19,-38.81,yes,yes,yes,300434063483810,unknown,unknown,unknown,South
2021-08-06T08:01:06Z,1628236866,2021,8,1,218.3341,218.3341,-77.88149,166.23338,1001.5,-2.19,-39.25,yes,yes,yes,300434063483810,unknown,unknown,unknown,South
2021-08-06T12:01:00Z,1628251260,2021,12,1,218.5007,218.5007,-77.88144,166.23341,1003.5,-2.19,-39.62,yes,yes,yes,300434063483810,unknown,unknown,unknown,South
2021-08-06T16:01:12Z,1628265672,2021,16,1,218.6675,218.6675,-77.88146,166.23342,1006.9,-2.19,-39.62,yes,yes,yes,300434063483810,unknown,unknown,unknown,South
2021-08-06T20:01:14Z,1628280075,2021,20,1,218.8342,218.8342,-77.88145,166.23323,1007.9,-2.19,-36.81,yes,yes,yes,300434063483810,unknown,unknown,unknown,South
2021-08-07T00:01:00Z,1628294460,2021,0,0,219.0007,219.0007,-77.88145,166.23326,1008.2,-2.19,-34.31,yes,yes,yes,300434063483810,unknown,unknown,unknown,South
2021-08-07T04:01:20Z,1628308881,2021,4,1,219.1676,219.1676,-77.88146,166.23328,1008.2,-2.19,-33.62,yes,yes,yes,300434063483810,unknown,unknown,unknown,South
2021-08-07T08:01:06Z,1628323266,2021,8,1,219.3341,219.3341,-77.88148,166.23336,1006.7,-2.19,-32.75,yes,yes,yes,300434063483810,unknown,unknown,unknown,South
2021-08-07T12:01:09Z,1628337669,2021,12,1,219.5008,219.5008,-77.88145,166.23336,1005.4,-2.19,-30.69,yes,yes,yes,300434063483810,unknown,unknown,unknown,South
2021-08-07T16:01:20Z,1628352081,2021,16,1,219.6676,219.6676,-77.88141,166.23346,1003.7,-2.19,-30.19,yes,yes,yes,300434063483810,unknown,unknown,unknown,South
2021-08-07T20:01:06Z,1628366466,2021,20,1,219.8341,219.8341,-77.88148,166.23331,1001.7,-2.19,-31.0,yes,yes,yes,300434063483810,unknown,unknown,unknown,South
2021-08-08T00:01:17Z,1628380878,2021,0,1,220.0009,220.0009,-77.88145,166.23326,999.0,-2.19,-29.25,yes,yes,yes,300434063483810,unknown,unknown,unknown,South
2021-08-08T04:02:03Z,1628395324,2021,4,2,220.1681,220.1681,-77.88146,166.23328,995.0,-2.19,-29.94,yes,yes,yes,300434063483810,unknown,unknown,unknown,South
2021-08-08T08:01:06Z,1628409666,2021,8,1,220.3341,220.3341,-77.88148,166.23342,991.1,-2.19,-31.19,yes,yes,yes,300434063483810,unknown,unknown,unknown,South
2021-08-08T12:01:09Z,1628424069,2021,12,1,220.5008,220.5008,-77.88145,166.23334,988.2,-2.19,-33.69,yes,yes,yes,300434063483810,unknown,unknown,unknown,South
2021-08-08T16:03:47Z,1628438628,2021,16,3,220.6693,220.6693,-77.88146,166.23342,987.2,-2.19,-34.44,yes,yes,yes,300434063483810,unknown,unknown,unknown,South
2021-08-08T20:01:14Z,1628452875,2021,20,1,220.8342,220.8342,-77.88148,166.23328,986.6,-2.19,-35.69,yes,yes,yes,300434063483810,unknown,unknown,unknown,South
2021-08-09T00:01:17Z,1628467278,2021,0,1,221.0009,221.0009,-77.88146,166.23326,986.4,-2.19,-41.75,yes,yes,yes,300434063483810,unknown,unknown,unknown,South
2021-08-09T04:01:12Z,1628481672,2021,4,1,221.1675,221.1675,-77.88146,166.2332,986.4,-2.19,-39.62,yes,yes,yes,300434063483810,unknown,unknown,unknown,South
2021-08-09T08:01:06Z,1628496066,2021,8,1,221.3341,221.3341,-77.88148,166.23341,986.4,-2.19,-39.69,yes,yes,yes,300434063483810,unknown,unknown,unknown,South
2021-08-09T12:01:09Z,1628510469,2021,12,1,221.5008,221.5008,-77.88142,166.23074,987.0,-2.19,-39.81,yes,yes,yes,300434063483810,unknown,unknown,unknown,South
2021-08-09T16:01:12Z,1628524872,2021,16,1,221.6675,221.6675,-77.88146,166.23342,987.3,-2.19,-41.12,yes,yes,yes,300434063483810,unknown,unknown,unknown,South
2021-08-09T20:02:49Z,1628539370,2021,20,2,221.8353,221.8353,-77.88146,166.2332,990.1,-2.19,-42.75,yes,yes,yes,300434063483810,unknown,unknown,unknown,South
2021-08-10T00:01:09Z,1628553669,2021,0,1,222.0008,222.0008,-77.88146,166.23334,993.9,-2.19,-41.5,yes,yes,yes,300434063483810,unknown,unknown,unknown,South
2021-08-10T04:01:12Z,1628568072,2021,4,1,222.1675,222.1675,-77.88146,166.23326,998.6,-2.19,-37.88,yes,yes,yes,300434063483810,unknown,unknown,unknown,South
2021-08-10T08:01:14Z,1628582475,2021,8,1,222.3342,222.3342,-77.88148,166.23341,1003.4,-2.19,-36.0,yes,yes,yes,300434063483810,unknown,unknown,unknown,South
2021-08-10T12:01:09Z,1628596869,2021,12,1,222.5008,222.5008,-77.88142,166.23342,1008.0,-2.19,-37.56,yes,yes,yes,300434063483810,unknown,unknown,unknown,South
2021-08-10T16:01:20Z,1628611281,2021,16,1,222.6676,222.6676,-77.88145,166.23334,1012.5,-2.19,-37.94,yes,yes,yes,300434063483810,unknown,unknown,unknown,South
2021-08-10T20:01:06Z,1628625666,2021,20,1,222.8341,222.8341,-77.88146,166.23307,1015.3,-2.19,-39.06,yes,yes,yes,300434063483810,unknown,unknown,unknown,South
2021-08-11T00:01:17Z,1628640078,2021,0,1,223.0009,223.0009,-77.88146,166.23318,1018.3,-2.19,-38.38,yes,yes,yes,300434063483810,unknown,unknown,unknown,South
2021-08-11T04:01:20Z,1628654481,2021,4,1,223.1676,223.1676,-77.88146,166.23326,1020.2,-2.19,-39.69,yes,yes,yes,300434063483810,unknown,unknown,unknown,South
2021-08-11T08:01:14Z,1628668875,2021,8,1,223.3342,223.3342,-77.88148,166.23338,1021.5,-2.19,-42.19,yes,yes,yes,300434063483810,unknown,unknown,unknown,South
2021-08-11T12:01:17Z,1628683278,2021,12,1,223.5009,223.5009,-77.88144,166.23338,1021.4,-2.19,-42.38,yes,yes,yes,300434063483810,unknown,unknown,unknown,South
2021-08-11T16:01:20Z,1628697681,2021,16,1,223.6676,223.6676,-77.88148,166.23341,1021.2,-2.19,-42.75,yes,yes,yes,300434063483810,unknown,unknown,unknown,South
2021-08-11T20:01:06Z,1628712066,2021,20,1,223.8341,223.8341,-77.88146,166.23323,1019.1,-2.19,-42.94,yes,yes,yes,300434063483810,unknown,unknown,unknown,South
2021-08-12T00:01:09Z,1628726469,2021,0,1,224.0008,224.0008,-77.88148,166.23323,1015.7,-2.19,-39.88,yes,yes,yes,300434063483810,unknown,unknown,unknown,South
2021-08-12T01:44:06Z,1628732647,2021,1,44,224.0723,224.0723,-77.88149,166.23328,1013.7,-2.19,-39.94,yes,yes,yes,300434063483810,unknown,unknown,unknown,South
2021-08-12T04:01:03Z,1628740863,2021,4,1,224.1674,224.1674,-77.88146,166.23376,1012.0,-2.19,-38.19,yes,yes,yes,300434063483810,unknown,unknown,unknown,South
2021-08-12T08:01:14Z,1628755275,2021,8,1,224.3342,224.3342,-77.88148,166.23338,1009.4,-2.19,-40.19,yes,yes,yes,300434063483810,unknown,unknown,unknown,South
2021-08-12T12:01:17Z,1628769678,2021,12,1,224.5009,224.5009,-77.88114,166.23435,1005.5,-2.19,-40.19,yes,yes,yes,300434063483810,unknown,unknown,unknown,South
2021-08-12T16:01:12Z,1628784072,2021,16,1,224.6675,224.6675,-77.88148,166.23336,1002.0,-2.19,-36.69,yes,yes,yes,300434063483810,unknown,unknown,unknown,South
2021-08-12T20:02:06Z,1628798527,2021,20,2,224.8348,224.8348,-77.88145,166.2332,998.8,-2.19,-39.12,yes,yes,yes,300434063483810,unknown,unknown,unknown,South
2021-08-13T00:01:09Z,1628812869,2021,0,1,225.0008,225.0008,-77.88148,166.23323,996.2,-2.19,-38.06,yes,yes,yes,300434063483810,unknown,unknown,unknown,South
2021-08-13T04:01:12Z,1628827272,2021,4,1,225.1675,225.1675,-77.88146,166.23328,994.5,-2.19,-40.12,yes,yes,yes,300434063483810,unknown,unknown,unknown,South
2021-08-13T08:01:14Z,1628841675,2021,8,1,225.3342,225.3342,-77.88145,166.23338,995.6,-2.19,-37.0,yes,yes,yes,300434063483810,unknown,unknown,unknown,South
2021-08-13T12:01:09Z,1628856069,2021,12,1,225.5008,225.5008,-77.88144,166.23336,996.8,-2.19,-36.06,yes,yes,yes,300434063483810,unknown,unknown,unknown,South
2021-08-13T16:01:20Z,1628870481,2021,16,1,225.6676,225.6676,-77.88148,166.23334,1000.9,-2.19,-33.5,yes,yes,yes,300434063483810,unknown,unknown,unknown,South
2021-08-13T20:01:06Z,1628884866,2021,20,1,225.8341,225.8341,-77.88146,166.2332,1004.7,-2.19,-35.88,yes,yes,yes,300434063483810,unknown,unknown,unknown,South
2021-08-14T00:01:17Z,1628899278,2021,0,1,226.0009,226.0009,-77.88118,166.23341,1007.8,-2.19,-35.06,yes,yes,yes,300434063483810,unknown,unknown,unknown,South
2021-08-14T04:01:20Z,1628913681,2021,4,1,226.1676,226.1676,-77.88146,166.23328,1010.1,-2.19,-34.94,yes,yes,yes,300434063483810,unknown,unknown,unknown,South
2021-08-14T08:01:49Z,1628928109,2021,8,1,226.3346,226.3346,-77.88129,166.23346,1012.3,-2.19,-35.44,yes,yes,yes,300434063483810,unknown,unknown,unknown,South
2021-08-14T12:01:09Z,1628942469,2021,12,1,226.5008,226.5008,-77.88126,166.23235,1015.3,-2.19,-33.88,yes,yes,yes,300434063483810,unknown,unknown,unknown,South
2021-08-14T16:01:20Z,1628956881,2021,16,1,226.6676,226.6676,-77.88146,166.23326,1017.9,-2.19,-35.44,yes,yes,yes,300434063483810,unknown,unknown,unknown,South
2021-08-14T20:01:06Z,1628971266,2021,20,1,226.8341,226.8341,-77.88145,166.23323,1020.5,-2.19,-35.12,yes,yes,yes,300434063483810,unknown,unknown,unknown,South
2021-08-15T00:01:09Z,1628985669,2021,0,1,227.0008,227.0008,-77.88146,166.23323,1021.7,-2.19,-37.0,yes,yes,yes,300434063483810,unknown,unknown,unknown,South
2021-08-15T04:01:12Z,1629000072,2021,4,1,227.1675,227.1675,-77.88145,166.23326,1021.8,-2.19,-36.44,yes,yes,yes,300434063483810,unknown,unknown,unknown,South
2021-08-15T08:02:41Z,1629014561,2021,8,2,227.3352,227.3352,-77.88146,166.23346,1021.5,-2.19,-37.06,yes,yes,yes,300434063483810,unknown,unknown,unknown,South
2021-08-15T12:01:17Z,1629028878,2021,12,1,227.5009,227.5009,-77.88145,166.23334,1019.8,-2.19,-39.38,yes,yes,yes,300434063483810,unknown,unknown,unknown,South
2021-08-15T16:01:12Z,1629043272,2021,16,1,227.6675,227.6675,-77.88149,166.23338,1017.6,-2.19,-40.56,yes,yes,yes,300434063483810,unknown,unknown,unknown,South
2021-08-15T20:01:14Z,1629057675,2021,20,1,227.8342,227.8342,-77.88173,166.23346,1015.4,-2.19,-43.56,yes,yes,yes,300434063483810,unknown,unknown,unknown,South
2021-08-16T00:01:09Z,1629072069,2021,0,1,228.0008,228.0008,-77.88146,166.23326,1013.7,-2.19,-44.44,yes,yes,yes,300434063483810,unknown,unknown,unknown,South
2021-08-16T04:01:12Z,1629086472,2021,4,1,228.1675,228.1675,-77.88146,166.23323,1012.6,-2.19,-44.31,yes,yes,yes,300434063483810,unknown,unknown,unknown,South
2021-08-16T08:01:06Z,1629100866,2021,8,1,228.3341,228.3341,-77.88146,166.23338,1011.9,-2.19,-45.06,yes,yes,yes,300434063483810,unknown,unknown,unknown,South
2021-08-16T12:01:17Z,1629115278,2021,12,1,228.5009,228.5009,-77.88146,166.23336,1012.1,-2.19,-42.56,yes,yes,yes,300434063483810,unknown,unknown,unknown,South
2021-08-16T16:01:12Z,1629129672,2021,16,1,228.6675,228.6675,-77.88148,166.23453,1012.3,-2.19,-44.25,yes,yes,yes,300434063483810,unknown,unknown,unknown,South
2021-08-16T19:31:52Z,1629142312,2021,19,31,228.8138,228.8138,-77.8819,166.22944,1011.4,-2.19,-47.06,yes,yes,yes,300434063483810,unknown,unknown,unknown,South
2021-08-16T23:20:06Z,1629156007,2021,23,20,228.9723,228.9723,-77.88145,166.23331,1010.7,-2.19,-45.06,yes,yes,yes,300434063483810,unknown,unknown,unknown,South
2021-08-17T00:00:43Z,1629158443,2021,0,0,229.0005,229.0005,-77.88146,166.23328,1010.5,-2.19,-43.56,yes,yes,yes,300434063483810,unknown,unknown,unknown,South
2021-08-17T04:01:20Z,1629172881,2021,4,1,229.1676,229.1676,-77.88144,166.23312,1008.8,-2.19,-41.75,yes,yes,yes,300434063483810,unknown,unknown,unknown,South
2021-08-17T08:01:58Z,1629187318,2021,8,1,229.3347,229.3347,-77.88106,166.2341,1007.0,-2.19,-43.62,yes,yes,yes,300434063483810,unknown,unknown,unknown,South
2021-08-17T12:01:09Z,1629201669,2021,12,1,229.5008,229.5008,-77.88146,166.23331,1004.8,-2.19,-42.44,yes,yes,yes,300434063483810,unknown,unknown,unknown,South
2021-08-17T16:01:20Z,1629216081,2021,16,1,229.6676,229.6676,-77.88146,166.23331,1003.1,-2.19,-41.56,yes,yes,yes,300434063483810,unknown,unknown,unknown,South
2021-08-17T20:01:06Z,1629230466,2021,20,1,229.8341,229.8341,-77.88145,166.23318,1002.3,-2.19,-42.0,yes,yes,yes,300434063483810,unknown,unknown,unknown,South
2021-08-18T00:01:09Z,1629244869,2021,0,1,230.0008,230.0008,-77.88149,166.23326,1002.6,-2.19,-43.5,yes,yes,yes,300434063483810,unknown,unknown,unknown,South
2021-08-18T09:19:09Z,1629278349,2021,9,19,230.3883,230.3883,-77.88146,166.23318,1001.6,-2.19,-45.44,yes,yes,yes,300434063483810,unknown,unknown,unknown,South
2021-08-18T12:01:17Z,1629288078,2021,12,1,230.5009,230.5009,-77.88146,166.23338,1001.0,-2.19,-47.62,yes,yes,yes,300434063483810,unknown,unknown,unknown,South
2021-08-19T00:29:22Z,1629332963,2021,0,29,231.0204,231.0204,-77.88149,166.23331,995.2,-2.21,-45.69,yes,yes,yes,300434063483810,unknown,unknown,unknown,South
2021-08-19T04:01:12Z,1629345672,2021,4,1,231.1675,231.1675,-77.88148,166.23304,993.5,-2.19,-41.88,yes,yes,yes,300434063483810,unknown,unknown,unknown,South
2021-08-19T08:01:06Z,1629360066,2021,8,1,231.3341,231.3341,-77.88145,166.23342,992.8,-2.19,-43.81,yes,yes,yes,300434063483810,unknown,unknown,unknown,South
2021-08-19T12:01:09Z,1629374469,2021,12,1,231.5008,231.5008,-77.88146,166.23341,992.6,-2.19,-42.88,yes,yes,yes,300434063483810,unknown,unknown,unknown,South
2021-08-19T16:01:20Z,1629388881,2021,16,1,231.6676,231.6676,-77.88149,166.23334,993.0,-2.19,-43.5,yes,yes,yes,300434063483810,unknown,unknown,unknown,South
2021-08-19T20:01:06Z,1629403266,2021,20,1,231.8341,231.8341,-77.88145,166.23323,994.4,-2.19,-43.5,yes,yes,yes,300434063483810,unknown,unknown,unknown,South
2021-08-20T00:01:09Z,1629417669,2021,0,1,232.0008,232.0008,-77.88148,166.23331,995.8,-2.19,-43.0,yes,yes,yes,300434063483810,unknown,unknown,unknown,South
2021-08-20T04:01:20Z,1629432081,2021,4,1,232.1676,232.1676,-77.88145,166.23323,996.1,-2.19,-40.12,yes,yes,yes,300434063483810,unknown,unknown,unknown,South
2021-08-20T08:02:06Z,1629446527,2021,8,2,232.3348,232.3348,-77.88144,166.23334,995.1,-2.19,-42.81,yes,yes,yes,300434063483810,unknown,unknown,unknown,South
2021-08-20T12:01:17Z,1629460878,2021,12,1,232.5009,232.5009,-77.88146,166.23334,993.6,-2.19,-41.06,yes,yes,yes,300434063483810,unknown,unknown,unknown,South
2021-08-20T16:01:12Z,1629475272,2021,16,1,232.6675,232.6675,-77.88144,166.23371,992.5,-2.19,-42.0,yes,yes,yes,300434063483810,unknown,unknown,unknown,South
2021-08-20T20:01:06Z,1629489666,2021,20,1,232.8341,232.8341,-77.88146,166.23346,991.1,-2.19,-39.38,yes,yes,yes,300434063483810,unknown,unknown,unknown,South
2021-08-21T00:01:09Z,1629504069,2021,0,1,233.0008,233.0008,-77.88149,166.23323,989.9,-2.19,-40.25,yes,yes,yes,300434063483810,unknown,unknown,unknown,South
2021-08-21T04:01:03Z,1629518463,2021,4,1,233.1674,233.1674,-77.88145,166.23301,988.6,-2.19,-40.0,yes,yes,yes,300434063483810,unknown,unknown,unknown,South
2021-08-21T08:01:06Z,1629532866,2021,8,1,233.3341,233.3341,-77.88141,166.23315,989.2,-2.19,-39.81,yes,yes,yes,300434063483810,unknown,unknown,unknown,South
2021-08-21T12:01:17Z,1629547278,2021,12,1,233.5009,233.5009,-77.88146,166.23338,988.4,-2.19,-41.69,yes,yes,yes,300434063483810,unknown,unknown,unknown,South
2021-08-21T16:01:20Z,1629561681,2021,16,1,233.6676,233.6676,-77.88145,166.23346,988.5,-2.19,-37.25,yes,yes,yes,300434063483810,unknown,unknown,unknown,South
2021-08-21T20:01:14Z,1629576075,2021,20,1,233.8342,233.8342,-77.88182,166.23219,989.0,-2.19,-36.75,yes,yes,yes,300434063483810,unknown,unknown,unknown,South
2021-08-22T00:01:17Z,1629590478,2021,0,1,234.0009,234.0009,-77.88149,166.23326,989.8,-2.19,-42.0,yes,yes,yes,300434063483810,unknown,unknown,unknown,South
2021-08-22T04:01:20Z,1629604881,2021,4,1,234.1676,234.1676,-77.88145,166.23346,989.6,-2.19,-39.69,yes,yes,yes,300434063483810,unknown,unknown,unknown,South
2021-08-22T08:01:06Z,1629619266,2021,8,1,234.3341,234.3341,-77.88144,166.23326,990.5,-2.19,-40.06,yes,yes,yes,300434063483810,unknown,unknown,unknown,South
2021-08-22T12:01:09Z,1629633669,2021,12,1,234.5008,234.5008,-77.88145,166.23338,991.3,-2.19,-38.81,yes,yes,yes,300434063483810,unknown,unknown,unknown,South
2021-08-22T16:01:29Z,1629648089,2021,16,1,234.6677,234.6677,-77.88141,166.2332,991.9,-2.19,-40.44,yes,yes,yes,300434063483810,unknown,unknown,unknown,South
2021-08-22T20:01:06Z,1629662466,2021,20,1,234.8341,234.8341,-77.88141,166.23307,992.4,-2.19,-40.62,yes,yes,yes,300434063483810,unknown,unknown,unknown,South
2021-08-23T00:01:17Z,1629676878,2021,0,1,235.0009,235.0009,-77.88149,166.23326,992.5,-2.19,-40.75,yes,yes,yes,300434063483810,unknown,unknown,unknown,South
2021-08-23T01:09:24Z,1629680964,2021,1,9,235.0482,235.0482,-77.88234,166.23384,992.2,-2.19,-38.69,yes,yes,yes,300434063483810,unknown,unknown,unknown,South